Weather History for KIGX - March, 2013

Change the Weather History Date:

Wednesday, March 27, 2013

  Actual Average Record
Temperature  
Mean Temperature 42 °F -  
Max Temperature 51 °F 63 °F 88 °F (1949)
Min Temperature 34 °F 38 °F 19 °F (1955)
Degree Days  
Heating Degree Days 23    
Moisture  
Dew Point 22 °F    
Average Humidity 48    
Maximum Humidity 70    
Minimum Humidity 28    
Precipitation  
Precipitation 0.00 in - - ()
Sea Level Pressure  
Sea Level Pressure 30.17 in    
Wind  
Wind Speed 9 mph (WNW)    
Max Wind Speed 17 mph    
Max Gust Speed 28 mph    
Visibility 10 miles    
Events      
Averages and records for this station are not official NWS values.
T = Trace of Precipitation, MM = Missing Value Source: NWS Daily Summary

Daily Weather History Graph

Daily Weather History Graph

Search for Another Location

Airport or City:

Trip Planner

Search our weather history database for the weather conditions in past years. The results will help you decide how hot, cold, wet, or windy it might be!

Date:

Astronomy

Mar. 27, 2013 Rise Set
Actual Time 7:09 AM EDT 7:34 PM EDT
Civil Twilight 6:43 AM EDT 7:59 PM EDT
Nautical Twilight 6:13 AM EDT 8:29 PM EDT
Astronomical Twilight 5:43 AM EDT 9:00 PM EDT
Moon 8:13 PM EDT (3/27) 7:00 AM EDT (3/27)
Length of Visible Light 13h 16m
Length of Day
12h 24m
Full, 100% of the Moon is Illuminated
Mar 27
Full
Apr 3
Last Quarter
Apr 10
New
Apr 18
First Quarter
Apr 25
Full

Hourly Weather History & Observations

Time (EDT) Temp. Windchill Dew Point Humidity Pressure Visibility Wind Dir Wind Speed Gust Speed Precip Events Conditions
12:56 AM 37.9 °F 31.5 °F 24.1 °F 57% 30.12 in 10.0 mi WNW 9.2 mph - N/A   Clear
1:56 AM 37.0 °F 30.4 °F 24.1 °F 59% 30.13 in 10.0 mi West 9.2 mph - N/A   Clear
2:56 AM 36.0 °F 29.6 °F 24.1 °F 62% 30.12 in 10.0 mi West 8.1 mph - N/A   Clear
3:56 AM 35.1 °F 29.3 °F 25.0 °F 67% 30.12 in 10.0 mi WNW 6.9 mph - N/A   Clear
4:56 AM 34.0 °F 28.0 °F 24.1 °F 67% 30.13 in 10.0 mi WNW 6.9 mph - N/A   Clear
5:56 AM 34.0 °F 28.0 °F 24.1 °F 67% 30.14 in 10.0 mi West 6.9 mph - N/A   Clear
6:56 AM 34.0 °F 28.0 °F 25.0 °F 70% 30.16 in 10.0 mi West 6.9 mph - N/A   Clear
7:56 AM 35.1 °F 28.6 °F 25.0 °F 67% 30.18 in 10.0 mi West 8.1 mph - N/A   Clear
8:56 AM 39.0 °F 33.4 °F 25.0 °F 57% 30.20 in 10.0 mi WNW 8.1 mph 18.4 mph N/A   Clear
9:56 AM 42.1 °F 37.1 °F 23.0 °F 47% 30.20 in 10.0 mi WNW 8.1 mph 20.7 mph N/A   Clear
10:56 AM 46.0 °F 40.6 °F 21.0 °F 37% 30.19 in 10.0 mi West 11.5 mph 18.4 mph N/A   Clear
11:56 AM 48.0 °F - 21.9 °F 36% 30.19 in 10.0 mi Variable 6.9 mph 25.3 mph N/A   Clear
12:56 PM 48.9 °F - 21.0 °F 33% 30.19 in 10.0 mi NW 12.7 mph 27.6 mph N/A   Scattered Clouds
1:56 PM 50.0 °F - 19.0 °F 29% 30.17 in 10.0 mi WNW 17.3 mph 23.0 mph N/A   Partly Cloudy
2:56 PM 50.0 °F - 19.0 °F 29% 30.16 in 10.0 mi WNW 13.8 mph 27.6 mph N/A   Partly Cloudy
3:56 PM 50.0 °F - 18.0 °F 28% 30.15 in 10.0 mi WNW 15.0 mph 26.5 mph N/A   Partly Cloudy
4:56 PM 50.0 °F - 18.0 °F 28% 30.15 in 10.0 mi WNW 11.5 mph 24.2 mph N/A   Clear
5:56 PM 48.9 °F - 17.1 °F 28% 30.16 in 10.0 mi WNW 13.8 mph 23.0 mph N/A   Clear
6:56 PM 46.9 °F - 18.0 °F 32% 30.19 in 10.0 mi NW 10.4 mph 19.6 mph N/A   Clear
7:56 PM 43.0 °F 38.8 °F 19.0 °F 38% 30.21 in 10.0 mi NW 6.9 mph - N/A   Clear
8:56 PM 39.0 °F - 19.9 °F 46% 30.22 in 10.0 mi Calm Calm - N/A   Clear
9:56 PM 36.0 °F - 21.0 °F 55% 30.23 in 10.0 mi Calm Calm - N/A   Clear
10:56 PM 34.0 °F 29.8 °F 21.0 °F 59% 30.23 in 10.0 mi WNW 4.6 mph - N/A   Clear
11:56 PM 35.1 °F 32.2 °F 21.0 °F 57% 30.23 in 10.0 mi West 3.5 mph - N/A   Clear